Location: London
(51.5074°N, 0.1278°W)
Time: 22:51:53
(UTC+01:00)

DELFI C3 - Pass Details

Date: 01 October 2020
Orbit: 535 x 549 km, 97.4° (Epoch: 22 October)

Event Time Altitude Azimuth Distance (km) Brightness Sun altitude
Exits shadow 21:29:06 22° 233° (SW) 1,235 ? -26.5°
Maximum altitude 21:30:28 27° 266° (W) 1,083 ? -26.7°
Drops below altitude 10° 21:33:51 10° 325° (NW) 1,828 ? -27.2°
Sets 21:36:15 0° 338° (NNW) 2,730 ? -27.5°
